Westfield, MA

2:44 AM EDT on May 27, 2017 (GMT -0400)
Barnes Municipal

Weather History for KBAF - November, 2012

Change the Weather History Date:

Friday, November 30, 2012

  Actual Average Record
Temperature  
Mean Temperature 31 °F -  
Max Temperature 34 °F 42 °F 64 °F (2006)
Min Temperature 28 °F 25 °F 12 °F (2013)
Degree Days  
Heating Degree Days 34    
Moisture  
Dew Point 12 °F    
Average Humidity 48    
Maximum Humidity 78    
Minimum Humidity 25    
Precipitation  
Precipitation 0.00 in - - ()
Sea Level Pressure  
Sea Level Pressure 30.44 in    
Wind  
Wind Speed 7 mph (North)    
Max Wind Speed 13 mph    
Max Gust Speed -    
Visibility 10 miles    
Events      
Averages and records for this station are not official NWS values.
T = Trace of Precipitation, MM = Missing Value Source: NWS Daily Summary

Daily Weather History Graph

Daily Weather History Graph

Search for Another Location

Airport or City:

Trip Planner

Search our weather history database for the weather conditions in past years. The results will help you decide how hot, cold, wet, or windy it might be!

Date:

Astronomy

Nov. 30, 2012 Rise Set
Actual Time 6:59 AM EST 4:20 PM EST
Civil Twilight 6:28 AM EST 4:51 PM EST
Nautical Twilight 5:53 AM EST 5:26 PM EST
Astronomical Twilight 5:19 AM EST 5:59 PM EST
Moon 6:12 PM EST (11/30) 8:29 AM EST (11/30)
Length of Visible Light 10h 23m
Length of Day
9h 20m
Waning Gibbous, 96% of the Moon is Illuminated
Nov 30
Waning Gibbous
Dec 6
Last Quarter
Dec 13
New
Dec 20
First Quarter
Dec 28
Full

Hourly Weather History & Observations

Time (EST) Temp. Windchill Dew Point Humidity Pressure Visibility Wind Dir Wind Speed Gust Speed Precip Events Conditions
12:53 AM 33.1 °F 26.1 °F 21.9 °F 64% 30.26 in 10.0 mi South 8.1 mph - N/A   Scattered Clouds
1:53 AM 32.0 °F 25.6 °F 23.0 °F 69% 30.28 in 10.0 mi South 6.9 mph - N/A   Mostly Cloudy
2:53 AM 28.0 °F 24.2 °F 21.9 °F 78% 30.30 in 10.0 mi West 3.5 mph - N/A   Partly Cloudy
3:53 AM 28.0 °F 21.7 °F 21.9 °F 78% 30.30 in 10.0 mi West 5.8 mph - N/A   Mostly Cloudy
4:53 AM 33.1 °F 26.9 °F 24.1 °F 70% 30.33 in 10.0 mi North 6.9 mph - N/A   Overcast
5:53 AM 33.1 °F 26.9 °F 25.0 °F 72% 30.35 in 10.0 mi North 6.9 mph - N/A   Overcast
6:53 AM 33.1 °F 28.7 °F 25.0 °F 72% 30.39 in 10.0 mi North 4.6 mph - N/A   Overcast
7:33 AM 33.8 °F 27.7 °F 24.8 °F 70% 30.39 in 10.0 mi NNE 6.9 mph - N/A   Overcast
7:53 AM 34.0 °F 28.8 °F 23.0 °F 64% 30.42 in 10.0 mi NNE 5.8 mph - N/A   Overcast
8:53 AM 33.1 °F 24.4 °F 19.0 °F 56% 30.45 in 10.0 mi North 11.5 mph - N/A   Overcast
9:53 AM 32.0 °F 22.5 °F 17.1 °F 54% 30.47 in 10.0 mi North 12.7 mph - N/A   Overcast
10:53 AM 33.1 °F 24.4 °F 15.1 °F 48% 30.47 in 10.0 mi NNE 11.5 mph - N/A   Overcast
11:46 AM 32.0 °F 23.0 °F 14.0 °F 48% 30.45 in 10.0 mi North 11.5 mph - N/A   Overcast
11:53 AM 32.0 °F 23.0 °F 14.0 °F 48% 30.47 in 10.0 mi North 11.5 mph - N/A   Overcast
12:53 PM 33.1 °F 26.1 °F 12.0 °F 42% 30.46 in 10.0 mi NNE 8.1 mph - N/A   Mostly Cloudy
1:53 PM 32.0 °F 24.2 °F 8.1 °F 37% 30.46 in 10.0 mi North 9.2 mph - N/A   Overcast
2:53 PM 32.0 °F 24.2 °F 3.9 °F 31% 30.48 in 10.0 mi North 9.2 mph - N/A   Overcast
3:53 PM 30.9 °F 27.5 °F 10.0 °F 42% 30.49 in 10.0 mi ENE 3.5 mph - N/A   Overcast
4:53 PM 30.9 °F 26.2 °F 8.1 °F 38% 30.48 in 10.0 mi North 4.6 mph - N/A   Mostly Cloudy
5:16 PM 30.2 °F 25.4 °F 6.8 °F 37% 30.47 in 10.0 mi North 4.6 mph - N/A   Overcast
5:53 PM 30.9 °F 26.2 °F 3.9 °F 32% 30.51 in 10.0 mi North 4.6 mph - N/A   Overcast
6:53 PM 30.9 °F 24.3 °F 1.9 °F 29% 30.52 in 10.0 mi North 6.9 mph - N/A   Overcast
7:53 PM 30.9 °F 23.5 °F -0.9 °F 26% 30.53 in 10.0 mi NNE 8.1 mph - N/A   Overcast
8:39 PM 30.2 °F 21.3 °F -2.2 °F 25% 30.51 in 10.0 mi North 10.4 mph - N/A   Overcast
8:53 PM 30.0 °F 24.1 °F -0.9 °F 27% 30.53 in 10.0 mi NNE 5.8 mph - N/A   Overcast
9:53 PM 30.0 °F 21.7 °F -0.9 °F 27% 30.54 in 10.0 mi North 9.2 mph - N/A   Overcast
10:53 PM 30.0 °F 24.1 °F -0.9 °F 27% 30.55 in 10.0 mi NNE 5.8 mph - N/A   Overcast
11:53 PM 30.0 °F 24.1 °F 1.0 °F 29% 30.55 in 10.0 mi NNE 5.8 mph - N/A   Overcast